Location: ???????????
(55.5758°N, 38.4970°E)
Time: 18:32:58
(UTC+00:00)

Cosmos 2369 Rocket - Pass Details

Date: 15 November 2025
Orbit: 826 x 853 km, 71.0° (Epoch: 14 December)

Event Time Altitude Azimuth Distance (km) Brightness Sun altitude
Exits shadow 03:41:48 12° 309° (NW) 2,348 3.9 -10.9°
Maximum altitude 03:46:11 29° 254° (WSW) 1,515 3.1 -10.3°
Drops below altitude 10° 03:50:59 10° 196° (SSW) 2,476 4.7 -9.7°
Sets 03:53:43 0° 186° (S) 3,409 5.5 -9.3°
